Regional Weather Roundup
Issued by NWS

Home | Current Version | Previous Version | Text Only | Print | Product List | Glossary Off
Versions: 1 2 3 4 5 6 7 8 9 10 11 12 13 14 15 16 17 18 19 20 21 22 23 24 25 26 27 28 29 30 31 32 33 34 35 36 37 38 39 40 41 42 43 44 45 46 47 48 49 50

000
ASUS43 KBIS 231210
RWRND

NORTH DAKOTA REGIONAL WEATHER ROUNDUP
NATIONAL WEATHER SERVICE BISMARCK ND
700 AM CDT SAT MAY 23 2015

NOTE: "FAIR" INDICATES FEW OR NO CLOUDS BELOW 12,000 FEET WITH NO
SIGNIFICANT WEATHER AND/OR OBSTRUCTIONS TO VISIBILITY.


NDZ001>003-009>011-017-231300-
NORTHWEST NORTH DAKOTA

CITY           SKY/WX    TMP DP  RH WIND       PRES   REMARKS
WILLISTON      CLEAR     46  38  73 N6        30.12R
6HR MIN TEMP:  39; 6HR MAX TEMP:  59;

MINOT          CLEAR     49  40  71 S3        30.14R
MINOT AFB      MOCLDY    48  46  91 S8        30.13R
$$

NDZ018>021-031>035-040>046-231300-
SOUTHWEST NORTH DAKOTA

CITY           SKY/WX    TMP DP  RH WIND       PRES   REMARKS
BISMARCK       CLEAR     46  43  89 CALM      30.17S
6HR MIN TEMP:  42; 6HR MAX TEMP:  53;

DICKINSON      PTCLDY    40  37  89 E7        30.11R
GARRISON         N/A     48  43  82 CALM      30.14S
6HR MIN TEMP:  42; 6HR MAX TEMP:  55;

HETTINGER ARPT MOCLDY    42  39  89 E9        30.12S
$$

NDZ004>008-012>016-024-026-027-054-231300-
NORTHEAST NORTH DAKOTA

CITY           SKY/WX    TMP DP  RH WIND       PRES   REMARKS
GRAND FORKS    MOSUNNY   49  42  77 S6        30.14R
GRND FRKS AFB  SUNNY     46  41  85 CALM      30.14R
DEVILS LAKE    SUNNY     52  43  71 SW7       30.14R
$$

NDZ022-023-025-028>030-036>039-047>053-231300-
SOUTHEAST NORTH DAKOTA

CITY           SKY/WX    TMP DP  RH WIND       PRES   REMARKS
FARGO          SUNNY     53  46  77 S7        30.19R
6HR MIN TEMP:  49; 6HR MAX TEMP:  60;

JAMESTOWN      CLEAR     50  43  77 SW3       30.18R
$$



USA.gov is the U.S. government's official web portal to all federal, state and local government web resources and services.